Torna al catalogo

STARLINK-34732

AttivoComunicazioniSSO
NORAD 64955·PAYLOAD·🇺🇸 United States

Lanciato Jul 26, 2025 da Vandenberg Space Force Base

Loading…

Prossimi Passaggi (prossime 24 ore)

TLE

AggiornatoSource: CelesTrak SupGP

Epoca: Sep 15, 2026, 03:42 UTC

1 64955C 25158Z   26258.15465278 -.00082899  00000+0 -25721-2 0  2585
2 64955  97.2848 116.4731 0001958  90.2879 231.8030 15.33496693    17

Traccia STARLINK-34732 in tempo reale con AllMySat

Download on the App Store